Location: Dulzura
(32.6442°N, 116.7814°W)
Time: 15:59:50
(UTC+00:00)

XW-2C - Visible Passes

Search period start: 20 March 2023 00:00
Search period end: 30 March 2023 00:00
Orbit: 484 x 504 km, 97.5° (Epoch: 20 March)

Date Brightness Start Highest point End Pass type
(mag) Time Alt. Az. Time Alt. Az. Time Alt. Az.
20 Mar ? 13:15:37 10° NE 13:18:23 21° E 13:21:09 10° SSE visible
21 Mar ? 12:55:59 10° E 12:56:47 11° E 12:57:33 10° ESE visible
25 Mar ? 13:02:17 10° ENE 13:04:07 13° E 13:05:56 10° SE visible
29 Mar ? 13:08:34 10° NE 13:10:56 16° E 13:13:17 10° SE visible
